TimeCDT,TemperatureF,Dew PointF,Humidity,Sea Level PressureIn,VisibilityMPH,Wind Direction,Wind SpeedMPH,Gust SpeedMPH,PrecipitationIn,Events,Conditions,WindDirDegrees,DateUTC
12:28 AM,77.0,73.4,89,29.98,2.5,SW,8.1,-,0.01,Rain-Thunderstorm,Heavy Thunderstorms and Rain,230,2013-08-03 05:28:00
12:45 AM,78.8,75.2,89,29.96,7.0,East,3.5,-,0.04,Rain-Thunderstorm,Light Thunderstorms and Rain,90,2013-08-03 05:45:00
12:54 AM,78.1,75.0,90,29.92,8.0,East,5.8,-,0.06,Rain-Thunderstorm,Light Thunderstorms and Rain,90,2013-08-03 05:54:00
1:16 AM,78.8,75.2,89,29.96,8.0,East,5.8,-,0.03,Rain,Light Rain,80,2013-08-03 06:16:00
1:46 AM,78.8,75.2,89,29.96,10.0,ENE,5.8,-,0.07,Rain-Thunderstorm,Light Rain,60,2013-08-03 06:46:00
1:54 AM,77.0,75.0,94,29.94,10.0,North,6.9,-,0.08,Rain-Thunderstorm,Light Rain,360,2013-08-03 06:54:00
2:54 AM,75.0,73.0,94,29.93,9.0,NE,9.2,-,0.07,Rain,Light Rain,40,2013-08-03 07:54:00
3:54 AM,75.9,73.0,91,29.94,10.0,NNE,8.1,-,0.06,,Scattered Clouds,20,2013-08-03 08:54:00
4:54 AM,73.9,71.1,91,29.93,10.0,NNE,8.1,-,0.04,Rain,Light Rain,20,2013-08-03 09:54:00
5:54 AM,75.0,71.1,87,29.88,10.0,SE,12.7,-,0.04,Rain,Light Rain,140,2013-08-03 10:54:00
6:54 AM,75.9,72.0,87,29.92,10.0,NE,4.6,-,0.02,,Scattered Clouds,50,2013-08-03 11:54:00
7:54 AM,75.9,72.0,87,29.91,10.0,SSE,10.4,-,0.03,,Mostly Cloudy,150,2013-08-03 12:54:00
8:54 AM,79.0,72.0,79,29.91,10.0,South,13.8,-,0.01,,Partly Cloudy,170,2013-08-03 13:54:00
9:54 AM,80.1,73.0,79,29.96,10.0,ESE,13.8,18.4,N/A,,Clear,110,2013-08-03 14:54:00
10:54 AM,79.0,75.0,88,29.99,10.0,East,9.2,17.3,N/A,,Clear,100,2013-08-03 15:54:00
11:54 AM,82.9,75.0,77,29.99,10.0,ESE,12.7,-,N/A,,Clear,120,2013-08-03 16:54:00
12:54 PM,84.0,75.0,74,29.98,10.0,SSE,13.8,23.0,N/A,,Partly Cloudy,150,2013-08-03 17:54:00
1:54 PM,81.0,75.0,82,29.99,10.0,SSE,10.4,21.9,0.00,Rain,Light Rain,150,2013-08-03 18:54:00
2:54 PM,81.0,75.0,82,29.98,10.0,SE,15.0,21.9,0.00,,Partly Cloudy,130,2013-08-03 19:54:00
3:54 PM,80.1,75.9,87,29.98,10.0,ESE,8.1,-,0.01,Rain,Light Rain,120,2013-08-03 20:54:00
4:54 PM,79.0,75.9,90,29.99,10.0,East,10.4,-,0.00,,Mostly Cloudy,100,2013-08-03 21:54:00
5:54 PM,80.1,75.0,85,29.98,10.0,ESE,8.1,-,0.01,,Clear,110,2013-08-03 22:54:00
6:54 PM,80.1,73.9,81,29.98,10.0,East,11.5,18.4,N/A,,Partly Cloudy,90,2013-08-03 23:54:00
7:54 PM,78.1,73.9,87,30.00,10.0,East,8.1,-,N/A,,Mostly Cloudy,90,2013-08-04 00:54:00
8:27 PM,78.8,73.4,83,30.05,10.0,East,5.8,-,N/A,Thunderstorm,Mostly Cloudy,80,2013-08-04 01:27:00
8:54 PM,78.1,73.9,87,30.04,10.0,East,5.8,-,0.00,Rain-Thunderstorm,Light Thunderstorms and Rain,80,2013-08-04 01:54:00
9:43 PM,75.2,73.4,94,30.05,10.0,ESE,12.7,-,0.01,,Mostly Cloudy,110,2013-08-04 02:43:00
9:54 PM,75.9,73.9,94,30.02,10.0,ESE,11.5,-,0.01,,Mostly Cloudy,110,2013-08-04 02:54:00
10:54 PM,75.0,73.9,96,30.03,10.0,East,3.5,-,N/A,,Mostly Cloudy,100,2013-08-04 03:54:00
11:54 PM,75.0,73.9,96,30.03,10.0,East,5.8,-,0.01,,Overcast,100,2013-08-04 04:54:00